Location: Berlin
(52.5171°N, 13.3759°E)
Time: 20:13:53
(UTC+01:00)

ISS - Pass Details

Date: 07 January 2018
Orbit: 401 x 407 km, 51.6° (Epoch: 17 January)

Event Time Altitude Azimuth Distance (km) Brightness Sun altitude
Exits shadow 05:57:42 77° 189° (S) 421 -3.9 -19.8°
Maximum altitude 05:57:43 78° 182° (S) 421 -3.9 -19.8°
Drops below altitude 10° 06:01:01 10° 97° (E) 1,468 0.2 -19.3°
Sets 06:03:06 0° 96° (E) 2,329 1.7 -19.0°
